Location: Penton Mewsey
(51.2167°N, 1.5167°W)
Time: 16:44:56
(UTC+00:00)

STARLINK-1143 - Pass Details

Date: 30 March 2020
Orbit: 549 x 550 km, 53.0° (Epoch: 03 June)

Event Time Altitude Azimuth Distance (km) Brightness Sun altitude
Rises 19:04:56 0° 220° (SW) 2,671 7.5 -5.2°
Reaches altitude 10° 19:07:16 10° 211° (SSW) 1,783 6.5 -5.6°
Maximum altitude 19:10:57 35° 145° (SE) 878 4.3 -6.1°
Drops below altitude 10° 19:14:40 10° 79° (E) 1,791 5.7 -6.7°
Enters shadow 19:15:45 - 74° (ENE) 2,201 6.2 -6.8°
